Starlink 4523

operational
NORAD ID: 53389 Int'l Des: 2022-097 Owner: SPXS Country: US Constellation: starlink
LEOCIRCULAR

Starlink 4523について

説明を読み込み中...

リアルタイム位置

3D地球を読み込み中...

次回通過

高度履歴

Altitude vs Time

uPlot chart will show altitude changes over time

軌道要素

1 53389U 22097B 25302.36200444 .00000950 00000-0 77725-4 0 9999
2 53389 53.2180 353.6746 0001298 82.0369 278.0770 15.08852267178844
Epoch: Oct 29, 2025 • Age: 14 hours

現在のステータス

高度 540.6 km
速度 7.60 km/s
衛星直下点 28.65°N, 10.96°W
打ち上げ日 Aug 10, 2022
運用期間 3.2 years
タイプ internet

技術仕様

分類 Payload
質量 297.00 kg
乾燥質量 275.00 kg
総質量 297.00 kg
長さ 0.20 m
直径 2.80 m
スパン 9.00 m
形状 Box + pan
製造者 SPXS
バスタイプ Starlink
フェーズステータス In Orbit
所有者/国 SPXS/US

大規模コンステレーション

Loading constellations...